Location: Cresco Cemetery
(37.5620°N, 96.2519°W)
Time: 21:29:38
(UTC+00:00)

Daily predictions for brighter satellites

Satellite Brightness Start Highest point End
(mag) Time Altitude Azimuth Time Altitude Azimuth Time Altitude Azimuth
Meteor 1-4 Rocket 3.1 12:01:58 10° SW 12:05:14 35° WNW 12:08:29 10° N
Cosmos 2278 Rocket 2.4 12:03:14 10° NNW 12:08:41 49° WSW 12:14:06 10° S
NOSS 3-2 (C) 4.2 12:03:15 10° NW 12:11:00 67° WSW 12:19:27 10° SSE
FENGYUN 3A 3.7 12:06:54 10° N 12:12:21 78° WNW 12:17:46 10° SSW
